Theta_e
310 309 309 307 307 306 307 308 310 307 305 304 303 303 302 302 302 298 293 292 294 288 287 289 289 285 285 286 284 287 287 292 290 285 284 285 282 284 285 287 284 282 280 280 284 283 281 293 298 293 296 298 300 299
309 309 307 307 306 306 307 308 309 306 305 304 303 303 302 302 302 300 292 295 298 291 288 291 293 294 292 292 289 290 290 290 292 288 288 286 284 285 284 281 288 281 284 281 284 283 288 295 297 298 299 297 297 297
309 309 307 306 306 306 306 308 308 306 305 304 303 302 302 302 302 300 295 295 295 291 289 286 289 293 296 296 297 289 294 296 295 295 290 287 284 286 282 284 284 287 288 286 287 289 290 294 298 298 298 297 298 299
308 307 306 306 306 306 307 308 307 305 304 303 302 302 302 302 302 301 295 294 295 291 286 286 295 293 298 298 297 297 297 297 296 294 290 288 285 290 286 285 285 285 286 285 288 289 292 293 295 296 296 296 295 296
307 306 306 306 306 306 307 308 306 305 303 303 302 302 302 302 302 299 292 295 297 292 287 287 293 294 295 299 298 297 295 295 295 292 290 288 291 291 291 287 284 285 284 284 283 290 291 292 295 297 295 294 294 294
305 305 305 305 306 306 307 307 305 304 303 302 303 303 303 302 300 292 287 297 295 297 291 286 291 292 294 295 300 301 299 297 292 292 291 293 296 290 286 283 288 288 290 291 289 294 294 295 296 296 294 294 294 294
305 305 305 305 306 306 307 305 304 303 302 302 302 302 302 301 297 290 287 299 300 300 292 288 284 290 293 295 301 298 298 294 289 293 292 292 287 290 286 282 287 290 291 292 295 294 291 294 292 295 295 294 295 294
304 304 305 306 306 307 305 304 303 302 302 302 302 302 302 301 301 295 297 301 301 295 295 288 285 286 292 291 293 296 295 294 290 287 288 287 286 287 283 286 289 292 293 293 294 295 294 295 294 293 294 293 291 291
303 304 304 306 307 305 303 302 301 301 301 301 302 303 301 297 292 295 305 305 300 297 291 291 286 280 291 291 293 295 296 290 295 290 284 283 284 281 286 288 291 292 292 292 294 295 294 293 293 293 292 291 290 289
303 304 304 306 305 303 301 300 300 301 301 302 297 293 290 297 305 305 294 295 294 295 296 290 292 288 289 288 289 292 295 290 285 290 291 285 284 289 291 293 294 294 294 294 291 291 292 292 292 292 292 292 291 290
304 305 306 305 303 301 300 299 300 300 296 288 286 288 291 299 294 290 290 292 292 290 291 292 292 285 291 286 288 294 291 290 283 287 286 283 283 288 292 294 295 296 296 296 296 296 295 294 292 292 292 292 292 290
305 306 305 304 302 301 300 299 299 293 289 290 290 293 290 290 288 288 288 290 291 289 293 290 289 289 288 294 293 293 290 290 282 289 282 278 287 291 292 294 295 296 295 295 296 295 295 294 293 292 291 291 291 291
304 305 304 302 301 300 299 299 299 300 297 295 292 290 286 286 283 283 279 283 287 290 290 288 287 288 289 296 293 291 287 285 291 284 281 285 290 292 293 294 294 296 296 295 295 296 293 292 291 291 289 290 290 289
304 305 303 301 300 300 299 299 299 296 292 287 286 276 283 281 283 284 285 287 290 289 289 288 287 286 291 292 290 288 290 291 283 280 277 287 289 292 294 294 294 294 295 295 294 292 292 292 291 291 290 290 289 288
304 303 302 301 300 300 299 299 299 293 290 286 285 279 282 286 288 290 291 290 290 290 289 288 287 287 289 289 289 290 287 283 284 280 282 290 291 293 293 293 293 293 294 293 293 293 292 292 291 291 291 291 290 290
303 301 299 299 300 300 299 298 294 293 291 288 287 284 285 283 282 286 287 288 291 290 288 288 286 284 284 285 285 288 285 283 281 286 289 291 292 292 293 294 295 292 292 293 294 293 293 292 291 291 292 291 291 290
300 293 298 299 299 300 299 293 292 289 288 287 284 286 284 284 283 285 287 289 292 290 286 286 284 284 286 284 283 284 282 285 290 290 292 293 293 293 294 296 294 292 292 292 293 293 293 293 293 292 290 290 291 290
293 295 299 301 298 296 292 291 290 289 284 284 282 283 285 287 286 287 289 290 291 289 289 286 288 284 283 282 280 285 291 294 294 293 294 295 295 295 296 295 294 293 292 292 293 293 293 293 292 291 291 291 290 290
295 298 301 300 296 292 289 289 289 284 285 286 286 286 287 288 289 290 290 291 292 292 291 288 285 284 284 286 287 288 293 294 293 295 295 295 295 296 294 295 293 292 292 292 292 292 292 293 291 291 291 291 289 289
300 300 300 300 296 289 287 286 291 284 283 285 287 286 287 288 289 290 291 292 292 290 288 286 286 287 288 290 291 292 293 296 297 294 295 298 298 297 294 294 293 292 291 291 291 290 290 289 290 291 291 290 289 289
296 296 297 294 291 290 289 286 288 287 286 285 287 287 287 289 289 289 289 292 290 288 287 289 289 291 292 293 294 295 296 298 298 298 297 297 295 295 294 293 293 292 291 291 290 290 290 290 289 290 291 291 291 290
295 298 292 294 290 289 286 287 285 289 285 286 286 287 285 286 288 288 290 289 288 289 290 290 291 292 293 294 295 296 298 300 301 300 298 296 294 293 292 293 292 291 291 291 291 290 290 290 290 290 291 290 290 289
298 296 292 291 287 286 286 289 285 286 284 285 289 285 285 286 288 291 286 287 288 291 292 293 294 294 294 296 300 299 298 299 300 301 302 301 299 296 295 294 293 292 291 292 293 292 291 289 290 291 290 290 290 289
298 291 289 288 287 283 290 286 286 286 286 285 287 287 286 286 289 286 285 286 289 291 291 294 298 293 293 294 295 298 299 299 300 301 303 302 301 297 296 295 295 295 295 295 294 293 293 292 290 291 290 290 289 289
283 284 287 284 289 286 286 286 286 285 284 286 285 286 286 288 284 284 285 286 287 289 292 297 297 294 292 292 293 295 298 300 300 299 302 303 302 301 297 296 296 296 297 295 294 294 294 294 292 292 291 290 290 289
280 283 280 284 284 284 285 285 286 285 286 286 286 287 286 284 283 284 286 288 288 290 291 293 296 296 295 293 293 294 296 301 303 300 301 303 303 302 298 296 296 297 300 298 297 296 295 295 294 293 292 290 288 290
281 282 284 287 286 286 285 288 289 286 287 287 287 286 284 282 283 286 289 291 293 295 294 294 295 296 293 292 294 300 301 303 303 303 305 305 305 305 304 300 298 300 301 300 298 297 295 294 294 294 294 292 291 292
285 285 282 284 284 287 286 286 286 286 288 290 290 288 287 286 287 290 293 299 296 296 299 302 301 300 297 302 303 304 304 305 306 306 305 305 305 306 306 306 306 294 301 301 299 298 297 296 295 294 292 292 291 292
283 286 286 283 285 285 286 286 287 290 296 292 289 288 291 294 295 295 296 296 297 301 300 300 301 302 302 304 304 303 303 304 302 299 299 298 298 299 304 306 306 305 301 298 288 293 297 296 295 294 294 293 293 292
283 286 284 285 285 284 288 290 290 296 295 296 297 295 292 293 294 297 297 295 295 295 295 298 300 299 299 299 300 299 300 302 303 301 298 298 299 301 301 301 301 300 299 298 296 292 286 292 291 294 293 293 293 291
288 285 284 285 286 289 292 298 298 296 294 293 295 291 289 291 294 297 296 296 298 298 298 296 296 298 298 296 295 294 293 295 297 298 297 297 301 301 301 300 299 298 298 298 296 295 293 293 293 294 294 293 293 292
286 285 285 285 287 294 298 295 294 293 293 293 292 292 290 291 288 294 296 297 297 296 293 296 295 294 294 293 293 293 289 293 293 293 294 295 296 298 300 299 297 296 295 295 294 295 295 294 294 294 294 294 294 294
285 285 287 288 288 290 294 292 292 292 292 291 291 291 293 291 289 291 294 294 295 297 296 296 296 295 294 292 292 291 290 293 289 285 286 285 285 288 293 299 300 298 297 295 294 294 294 294 292 292 291 290 290 290
Wind_Speed
13 13 11 11 14 14 13 13 9 8 7 7 7 7 7 8 7 3 4 3 1 4 8 5 3 5 5 4 4 6 9 1 3 6 5 4 3 4 5 4 7 6 7 5 5 6 6 22 16 3 5 5 12 8
13 11 10 11 13 14 14 13 8 8 9 9 7 7 7 8 7 6 3 3 2 4 8 4 15 19 16 20 5 3 4 7 3 4 2 3 3 4 6 5 5 4 4 4 4 3 11 14 8 10 14 14 8 12
13 10 11 10 12 14 14 13 9 10 9 9 7 7 8 8 8 6 3 4 2 4 6 3 5 5 4 13 13 3 3 4 3 1 2 2 3 2 4 3 5 4 6 3 3 4 13 15 12 14 16 16 15 14
12 11 13 12 11 12 13 11 10 9 9 8 8 9 9 10 9 9 3 2 1 3 4 8 3 9 4 5 10 14 6 4 3 1 1 2 2 1 3 3 4 3 9 8 4 7 6 16 13 13 19 20 21 19
12 12 12 12 12 13 12 10 10 9 9 8 9 10 10 10 10 8 4 5 6 1 4 8 12 5 7 1 6 9 9 6 2 2 1 2 2 3 1 1 3 6 5 4 3 8 4 10 11 12 17 16 18 20
12 12 13 12 12 11 11 9 9 9 9 9 11 11 10 8 8 2 3 1 3 4 3 5 5 6 5 4 4 3 3 2 1 1 2 2 2 3 2 2 5 8 7 4 2 7 12 12 15 16 21 19 20 19
13 12 12 12 12 11 10 10 9 9 10 11 12 11 10 8 4 3 4 1 7 2 2 5 5 5 5 3 1 1 1 2 1 2 2 2 3 3 2 3 11 9 3 5 7 7 12 11 10 15 20 23 24 20
11 12 10 11 10 10 9 7 7 9 11 13 14 13 10 8 7 6 4 15 6 2 2 3 6 6 1 3 3 1 1 0 2 0 3 3 4 3 2 8 11 6 2 3 4 9 11 14 16 16 16 20 21 18
11 11 12 11 11 9 7 5 7 10 13 15 16 14 2 2 3 3 1 5 5 3 2 1 2 5 3 3 2 1 0 1 1 2 2 3 2 3 5 11 8 10 6 9 12 12 13 15 16 16 17 17 19 17
12 13 13 9 9 8 5 4 8 11 13 14 2 1 2 3 9 10 3 2 3 3 3 3 2 5 2 2 3 2 2 1 2 1 3 2 1 2 6 6 6 8 9 8 12 11 12 13 14 15 15 15 14 14
12 13 11 11 9 7 5 3 7 12 3 3 1 3 2 8 2 1 2 3 3 3 4 4 4 4 1 2 3 1 2 0 2 1 1 2 1 2 5 4 7 8 9 9 10 9 10 11 13 14 14 15 14 14
12 10 11 11 10 8 5 3 4 2 2 3 2 2 2 1 1 2 3 2 4 4 4 3 5 5 4 3 1 2 1 1 2 1 3 0 1 5 2 7 8 9 11 12 11 13 11 11 11 13 12 12 12 12
12 10 12 11 10 8 5 3 4 4 2 1 1 1 2 2 3 4 4 3 3 3 3 1 4 2 3 2 1 1 2 1 2 1 1 1 3 5 6 7 9 8 11 11 8 7 11 14 12 13 13 11 12 11
10 13 13 12 10 8 6 5 4 1 2 2 3 3 5 4 5 5 4 4 5 3 2 2 3 1 2 2 2 1 1 1 0 2 4 3 5 7 7 8 9 9 9 8 5 12 11 13 12 12 12 11 12 11
13 14 12 10 11 9 8 6 3 1 2 2 2 5 6 4 3 3 3 1 3 1 0 2 1 1 2 2 2 1 1 2 2 4 3 5 7 8 8 8 8 6 6 3 9 11 11 11 11 11 10 10 12 11
13 8 7 9 11 12 8 4 2 1 1 2 4 3 3 2 4 2 1 3 2 2 1 2 1 1 2 0 1 2 2 3 3 2 5 8 9 9 7 8 3 5 8 9 9 11 11 11 11 11 10 10 10 11
13 3 7 12 9 10 10 3 2 3 3 4 4 3 3 3 5 4 2 3 1 2 1 1 1 3 1 1 2 3 4 2 2 4 6 7 10 10 10 5 4 7 8 9 9 9 10 11 11 11 10 8 8 8
2 3 13 13 8 6 1 2 2 3 5 4 3 3 3 4 3 3 3 3 3 3 3 3 2 0 2 2 4 3 2 1 3 7 8 8 11 9 5 5 7 7 7 8 9 9 11 11 10 7 9 9 8 8
4 6 12 12 4 3 3 2 3 4 5 3 4 3 3 4 4 3 2 2 2 2 3 1 1 3 3 4 3 2 2 2 5 4 4 7 7 8 7 7 8 7 8 8 9 7 6 8 7 7 6 7 6 5
10 8 8 5 3 1 0 3 3 2 3 4 2 3 4 4 2 1 2 3 3 2 1 2 4 3 4 3 4 3 3 5 6 7 3 2 3 6 9 9 6 8 6 6 6 6 6 6 5 6 6 7 7 6
4 2 3 3 1 1 2 3 4 4 3 2 2 2 3 1 1 1 3 3 2 3 3 4 3 3 3 2 1 3 6 7 5 4 4 2 2 6 6 6 8 7 7 6 6 5 6 6 4 5 6 5 4 5
2 8 2 1 1 2 3 4 4 2 1 3 3 2 2 2 2 2 3 2 3 4 4 3 3 3 2 2 3 4 5 7 6 5 4 6 4 5 6 7 8 7 7 6 6 6 4 4 5 5 5 5 6 6
9 3 2 3 3 4 5 3 2 3 2 3 1 2 3 2 2 1 1 2 3 3 3 3 2 2 2 1 3 3 6 9 6 5 4 3 4 4 6 6 7 8 6 4 5 6 5 7 7 6 5 6 6 5
3 3 3 4 5 4 1 3 3 2 2 2 3 3 2 2 1 2 2 2 3 2 1 2 3 3 3 3 2 3 4 5 6 6 4 6 4 3 5 6 6 6 7 6 5 5 6 6 7 7 6 6 6 6
3 4 3 4 2 2 3 3 4 2 4 4 2 1 1 1 2 1 2 3 2 2 2 2 3 3 3 2 1 2 4 6 7 9 6 4 3 3 3 4 5 6 6 7 5 6 5 6 7 8 8 8 9 9
4 5 6 5 2 3 4 2 3 4 2 2 2 1 2 3 1 3 3 2 3 3 3 4 3 3 2 4 3 4 4 4 6 7 6 6 4 3 4 7 5 3 5 6 8 9 9 9 9 11 10 10 9 10
3 4 4 3 2 2 3 3 1 1 3 3 3 2 2 2 3 3 2 2 1 1 0 1 3 3 3 2 3 3 4 5 4 6 7 7 7 7 5 6 7 5 6 7 7 9 11 11 10 11 10 7 10 12
3 2 4 2 3 3 3 2 3 4 4 2 3 2 2 4 3 3 3 1 4 4 5 5 3 3 3 2 1 3 4 5 5 5 5 4 6 8 8 3 3 8 5 5 5 6 8 9 10 11 10 10 9 8
3 3 1 3 3 3 4 4 3 1 0 2 4 2 3 3 2 0 1 3 2 3 5 3 2 2 3 4 4 4 3 5 8 11 10 4 3 3 5 7 7 7 3 4 5 7 10 9 10 11 11 9 8 7
4 4 2 3 3 3 2 3 2 2 1 2 3 2 3 3 4 2 3 2 3 3 3 3 4 3 3 3 3 4 5 4 4 3 4 2 3 2 6 7 7 6 5 6 7 4 7 5 6 4 4 4 4 4
1 3 2 2 1 2 1 1 2 2 2 2 3 4 3 2 2 4 5 4 3 4 4 4 3 3 4 4 3 4 3 3 3 4 4 3 3 3 4 5 5 5 5 6 6 5 5 4 5 6 7 7 7 7
2 4 2 1 3 2 1 2 2 3 3 3 3 3 3 4 3 4 5 4 3 4 4 4 4 4 3 4 4 3 4 2 1 1 1 1 2 2 2 4 4 4 5 5 5 5 6 7 6 7 7 8 7 8
1 1 1 2 2 3 1 3 2 2 3 2 1 1 2 2 2 1 2 4 3 4 5 4 3 3 4 4 4 2 3 3 4 4 3 3 2 3 2 1 4 5 7 6 5 5 6 6 6 7 7 6 5 4
Wind_Direction
268 274 278 298 301 305 304 298 283 230 244 262 282 306 319 325 333 347 288 218 199 274 280 231 235 225 291 258 272 314 324 15 321 359 359 356 318 340 302 322 341 338 337 351 330 18 18 340 319 73 109 95 131 130
257 264 275 286 294 299 297 301 256 227 241 258 271 288 306 311 314 326 290 222 207 233 262 233 257 252 237 242 288 281 269 292 337 333 354 320 324 317 311 337 348 12 18 307 24 357 297 313 44 64 96 107 108 110
251 253 266 270 283 293 295 297 237 230 246 263 276 284 295 298 304 298 270 296 258 264 285 347 249 257 210 228 216 255 258 330 335 310 324 292 300 329 334 360 299 331 9 332 261 19 358 12 46 76 87 88 91 98
236 251 257 264 275 282 282 281 230 231 248 260 273 281 288 294 302 299 273 256 256 275 291 282 303 292 256 218 191 209 262 317 265 273 282 298 296 7 338 310 342 331 314 319 329 357 330 25 37 78 88 86 81 76
227 241 256 266 276 284 283 251 220 232 249 263 270 278 285 300 308 298 214 217 217 244 296 289 311 263 295 257 190 205 230 260 276 298 282 308 263 292 61 313 20 335 327 347 344 342 16 45 53 73 86 90 79 82
230 236 244 255 265 275 281 223 226 235 249 263 272 280 291 303 314 11 335 149 185 179 272 299 283 292 309 304 183 188 215 271 259 287 308 286 48 349 7 31 12 354 339 9 39 36 61 69 72 77 87 90 82 76
230 238 248 257 268 278 227 214 232 250 267 275 278 281 287 284 265 216 195 40 151 179 242 287 302 283 292 276 251 249 130 254 163 308 314 321 8 4 34 356 328 331 63 26 29 13 61 52 81 81 87 90 87 84
239 248 253 270 267 238 207 219 252 272 280 284 283 284 279 267 270 266 245 224 212 281 284 282 278 325 272 297 291 188 294 334 341 318 357 24 357 6 33 320 321 317 40 200 92 72 87 93 85 82 83 90 84 84
262 263 274 269 250 189 201 224 266 282 289 290 292 279 250 182 206 239 202 137 153 252 294 270 272 268 350 287 274 312 46 297 244 349 45 73 356 22 318 313 347 42 89 115 102 92 95 91 93 95 92 87 91 92
255 263 266 237 189 188 187 250 280 289 299 301 150 205 241 198 303 135 297 129 165 224 229 246 249 261 87 352 304 317 324 328 22 25 125 62 85 281 322 347 55 77 94 96 107 110 111 103 102 97 95 100 90 90
264 263 246 181 176 201 207 234 292 319 359 59 194 235 284 318 66 39 243 216 167 222 209 231 223 250 276 187 260 199 312 25 22 316 6 18 47 83 334 81 89 78 95 94 100 86 86 100 108 107 105 103 103 94
265 246 196 182 179 189 216 257 321 45 170 189 226 290 312 64 113 212 211 242 215 231 203 207 236 203 270 223 322 322 290 16 298 32 59 306 123 134 104 91 106 109 96 83 88 108 115 112 105 107 109 110 110 106
280 209 185 188 192 184 206 226 269 276 23 213 185 309 84 235 200 206 220 233 240 227 229 256 304 222 330 220 99 16 300 309 118 24 272 231 131 138 122 105 95 107 111 109 112 87 104 107 107 113 110 106 108 106
259 195 188 187 191 178 217 236 262 125 133 148 173 290 199 217 233 197 202 204 234 206 256 191 262 214 247 204 151 272 232 259 143 263 235 166 160 146 132 123 118 117 117 139 72 115 113 113 112 110 113 121 120 117
204 177 187 194 194 189 213 238 191 199 146 192 155 234 225 244 262 249 233 283 254 195 163 335 325 88 275 242 202 226 262 267 244 246 201 142 150 146 132 135 142 160 202 191 128 119 115 114 110 108 107 111 110 109
160 154 203 203 198 197 194 203 175 169 192 210 230 259 245 360 291 303 269 263 225 143 77 69 350 342 273 156 221 259 257 253 256 225 144 144 145 146 150 151 188 122 120 119 119 121 122 120 120 119 117 116 118 121
149 221 198 179 177 159 167 165 183 203 215 233 242 217 203 250 231 239 205 249 133 88 242 112 278 232 318 294 264 185 213 232 175 130 138 144 144 158 185 196 135 121 116 120 122 126 122 121 123 122 121 123 121 120
209 188 155 150 141 124 143 149 223 228 235 233 232 250 197 226 236 249 238 213 141 167 138 225 166 355 218 220 272 244 260 289 119 142 145 150 162 179 194 151 130 130 123 125 125 129 130 131 128 126 125 124 115 114
166 152 149 155 153 148 141 213 199 241 232 224 241 228 225 241 233 235 220 207 171 159 120 76 213 217 234 220 224 211 180 137 131 128 147 157 167 165 162 148 135 129 130 132 135 138 135 133 132 131 128 128 127 128
148 136 132 141 126 89 218 248 174 216 255 234 241 244 220 221 245 197 160 158 136 126 98 219 219 218 198 232 192 179 149 127 140 144 213 131 180 161 164 153 144 132 118 115 109 108 110 103 116 135 138 136 140 156
99 177 145 98 85 73 304 279 252 211 249 239 244 219 257 270 256 199 199 153 105 187 232 222 223 237 220 243 187 141 154 156 153 165 179 158 165 154 139 133 132 133 137 138 141 135 130 148 145 137 140 150 148 147
156 151 111 131 154 187 248 225 223 272 242 248 300 207 258 243 225 221 152 134 206 222 200 194 209 188 175 178 176 174 156 138 125 116 109 113 124 130 141 146 140 145 149 152 152 158 154 140 140 141 143 139 127 131
144 146 154 150 213 211 257 136 213 226 219 255 183 212 243 219 214 96 106 225 254 235 218 207 195 158 182 184 122 126 158 156 150 139 123 101 120 136 138 148 148 143 147 163 153 149 152 144 146 144 127 127 132 129
164 176 214 197 210 243 191 220 216 256 258 258 251 249 183 174 115 80 223 243 250 292 229 209 145 96 47 78 144 169 173 166 164 150 150 136 145 144 158 156 159 163 165 151 148 144 146 161 150 149 151 151 157 160
117 235 202 220 200 216 250 230 204 197 241 219 234 222 188 113 110 184 229 265 247 239 248 191 160 163 168 183 202 206 182 165 170 175 168 144 124 116 141 157 162 164 144 140 156 165 163 157 167 168 171 172 177 178
207 203 176 201 219 201 224 244 199 210 239 234 206 105 58 76 93 233 233 224 228 216 202 196 182 164 228 206 182 184 194 179 165 170 169 169 169 166 156 160 159 181 179 175 175 184 181 181 182 181 187 188 181 174
230 231 223 235 227 242 282 263 250 235 249 225 173 154 118 120 244 266 282 237 242 247 217 145 146 167 221 218 225 197 153 164 173 174 167 172 182 214 200 167 169 189 167 181 182 176 177 177 183 189 194 182 186 190
250 250 203 210 206 218 241 257 234 225 212 223 98 145 191 184 226 242 220 4 117 111 87 55 51 84 88 31 76 122 124 136 125 110 117 134 170 188 205 169 157 154 164 185 185 163 172 174 174 175 175 184 190 190
242 246 191 250 229 214 222 221 253 280 305 105 130 172 157 225 299 323 190 122 109 108 114 119 107 61 44 50 39 44 67 162 162 166 153 140 149 204 182 171 196 233 185 176 194 171 164 164 164 176 180 185 191 177
250 176 204 243 207 229 253 180 276 313 12 106 149 117 56 13 332 355 48 54 84 106 142 149 154 158 144 115 90 45 357 11 15 89 127 165 232 199 168 180 188 194 176 163 158 122 94 91 84 97 119 139 150 159
194 157 232 235 270 273 285 101 12 80 59 73 48 84 110 172 17 34 33 11 60 58 71 66 64 84 105 91 95 115 96 18 355 324 310 263 256 221 183 179 169 146 148 151 160 153 140 145 163 170 178 195 196 190
185 187 153 69 335 356 221 47 15 66 35 60 44 51 29 53 51 3 349 359 60 72 60 70 67 43 40 74 72 60 73 108 133 225 268 6 348 3 111 141 142 139 143 153 159 166 172 169 168 179 188 203 205 199
157 165 156 133 349 340 194 119 76 62 48 81 37 98 75 105 116 262 326 20 85 102 95 81 66 56 42 43 35 33 26 6 18 30 26 23 350 318 306 165 150 153 156 163 166 167 171 162 177 175 176 184 188 185